Retour au catalogue

COSMOS 2499 DEB

ActifPO
NORAD 49940·DEBRIS·🇷🇺 Russia

Lancé May 23, 2014 depuis Plesetsk Cosmodrome

Loading…

Prochains Passages (prochaines 24 heures)

TLE

VieillissantSource: Space-Track

Époque: Sep 9, 2026, 00:54 UTC

1 49940U 14028X   26252.03803708  .00003432  00000-0  78940-2 0  9999
2 49940  82.4664 164.9583 0339968  24.9757 336.7383 13.06013812229951

Suivez COSMOS 2499 DEB en temps réel avec AllMySat

Download on the App Store